Location: Shepherdstown, WV
(39.4326°N, 77.8042°W)
Time: 05:57:14
(UTC-04:00)

Vanguard 3 - Pass Details

Date: 05 August 2021
Orbit: 510 x 3260 km, 33.3° (Epoch: 21 September)

Event Time Altitude Azimuth Distance (km) Brightness Sun altitude
Rises 17:30:46 0° 236° (SW) 4,601 11.8 30.9°
Reaches altitude 10° 17:33:23 10° 232° (SW) 3,921 11.6 30.4°
Maximum altitude 17:44:15 57° 157° (SSE) 2,720 10.0 28.3°
Drops below altitude 10° 18:01:44 10° 86° (E) 6,060 11.1 25.0°
Sets 18:06:55 0° 83° (E) 7,203 11.4 23.9°
